Weather in Makhkety

Russia / Chechen Republic     42°57′44″N   45°54′24″E
temp.,
°C
wind,
m/s
gust,
m/s
humid.,
%
clouds,
%
prec.,
mm/h
press.,
hPa
HPBL,
m
23 january, sat
sat2300:00−2sse22440 0.0 103022
03:00−2s12420 0.0 102822
06:00−3s11420 0.0 102921
09:000ene00470 0.0 102832
12:00+3nne11550 0.0 1026216
15:00+2nne11690 0.0 1025142
18:00−2s11720 0.0 102621
21:00−2ssw11680 0.0 102621
24 january, sun
sun2400:00−2ssw11590 0.0 102521
03:00−2ssw11520 0.0 102421
06:00−2sse11401 0.0 102321
09:00+2ese11420 0.0 102332
12:00+5nne11530 0.0 1021172
15:00+4nne11690 0.0 102087
18:000sse11631 0.0 102122
21:00+1sse115134 0.0 102122
25 january, mon
mon2500:00+1sse114410 0.0 102023
03:00+1sse124032 0.0 101923
06:00+1sse1144100 0.0 101922
09:00+4sse114995 0.0 102022
12:00+7nne115521 0.0 1018145
15:00+5n116958 0.0 101757
18:00+2sse116467 0.0 101822
21:00+2sse115833 0.0 101823
26 january, tue
tue2600:00+2sse115467 0.0 101824
03:00+2sse224783 0.0 101824
06:00+2sse224380 0.0 101823
09:00+6sse114154 0.0 101826
12:00+9nne115113 0.0 1016135
15:00+7ne116157 0.0 101655
18:00+4sse1257100 0.0 101722
21:00+4s1152100 0.0 101723
27 january, wed
wed2700:00+4s1145100 0.0 101724
03:00+3ssw1153100 0.0 101722
06:00+1sw1158100 0.0 101622
09:00+3se016091 0.0 101532
12:00+6nne1162100 0.0 1013145
15:00+6nne1167100 0.0 101187
18:00+3se1270100 0.0 101033
21:00+2sse1270100 0.0 101044